Home > Weather > Landeck > Past weeks

Flag for Austria Weather for the Past 2 Weeks in Landeck, Tyrol, Austria

Now
27 °F

Clear.


Feels Like: N/A
Forecast: 38 / 53 °F
Wind: N/A

Location: Resia Pass

Current Time: Feb 6, 2016 at 4:19:51 AM

Latest Report: Feb 6, 2016 at 1:55 AM


Visibility: 10 mi

Pressure: 30.33 "Hg (27.47 "Hg at 784m altitude)

Humidity: 86%

Dew point: 23 °F

Location of LandeckLocation

Historic Weather in Landeck — Graph

°F

Landeck Temperature Yesterday

Maximum temperature yesterday: 39 °F (at 11:55 AM)
Minimum temperature yesterday: 27 °F (at 10:55 PM)
Average temperature yesterday: 33 °F

High & Low Weather Summary for the Past Weeks

 TemperatureHumidityPressure
High54 °F (Feb 1, 12:55 PM)100% (Jan 30, 8:55 PM)30.60 "Hg (Jan 30, 8:55 PM)
Low10 °F (Jan 22, 7:55 AM)21% (Jan 25, 8:55 AM)29.89 "Hg (Jan 31, 2:55 PM)
Average34 °F72%30.30 "Hg
* Reported Jan 22 1:55 AM — Feb 6 1:55 AM, Landeck, Weather by CustomWeather, © 2016

Note: Actual official high and low records may vary slightly from our data, if they occured in-between our weather recording intervals... More about our weather records

Advertising

Landeck Weather History for the Previous 24 Hours

 ConditionsComfort  
Time TempWeatherWind HumidityBarometerVisibility
1:55 AM
Sat, Feb 6
27 °FClear.N/A86%30.33 "Hg10 mi
12:55 AM27 °FClear.N/A86%30.33 "Hg10 mi
11:55 PM
Fri, Feb 5
27 °FClear.N/A86%30.33 "Hg10 mi
10:55 PM27 °FClear.N/A86%30.33 "Hg10 mi
9:55 PM28 °FClear.N/A64%30.33 "Hg10 mi
8:55 PM30 °FClear.N/A86%30.33 "Hg10 mi
7:55 PM34 °FPassing clouds.N/A70%30.33 "HgN/A
6:55 PM34 °FPassing clouds.N/A70%30.33 "HgN/A
5:55 PM34 °FPassing clouds.N/A70%30.30 "HgN/A
4:55 PM37 °FPartly sunny.N/A65%30.30 "HgN/A
3:55 PM37 °FPartly sunny.N/A75%30.30 "HgN/A
2:55 PM32 °FPartly sunny.N/A69%30.24 "HgN/A
1:55 PM37 °FOvercast.N/A65%30.30 "HgN/A
12:55 PM39 °FOvercast.N/A65%30.33 "HgN/A
11:55 AM39 °FPartly sunny.N/A65%30.24 "HgN/A
10:55 AM37 °FSunny.N/A70%30.33 "Hg10 mi
9:55 AM32 °FOvercast.N/A80%30.24 "HgN/A
8:55 AM32 °FOvercast.N/A80%30.24 "HgN/A
7:55 AM32 °FOvercast.N/A87%30.24 "HgN/A
6:55 AM32 °FOvercast.N/A87%30.24 "HgN/A
5:55 AM32 °FOvercast.N/A93%30.24 "HgN/A
4:55 AM32 °FOvercast.N/A93%30.21 "HgN/A
Weather by CustomWeather, © 2016

See weather overviewHow to use our weather pages